TimeCST,TemperatureF,Dew PointF,Humidity,Sea Level PressureIn,VisibilityMPH,Wind Direction,Wind SpeedMPH,Gust SpeedMPH,PrecipitationIn,Events,Conditions,WindDirDegrees,DateUTC
12:14 AM,46.4,42.8,87,30.04,10.0,South,6.9,-,0.00,Rain,Light Rain,170,2013-01-01 06:14:00
12:56 AM,46.9,43.9,89,30.08,7.0,South,6.9,-,0.00,Rain,Light Rain,170,2013-01-01 06:56:00
1:03 AM,46.4,44.6,93,30.05,5.0,South,5.8,-,0.00,Rain,Rain,170,2013-01-01 07:03:00
1:23 AM,46.4,44.6,93,30.04,1.8,SSE,12.7,-,0.05,Rain,Heavy Rain,160,2013-01-01 07:23:00
1:45 AM,46.4,46.4,100,30.04,2.0,SSE,5.8,-,0.09,Rain,Rain,160,2013-01-01 07:45:00
1:56 AM,46.9,45.9,96,30.08,4.0,SSW,3.5,-,0.09,Rain,Light Rain,210,2013-01-01 07:56:00
2:33 AM,46.4,46.4,100,30.05,2.5,NW,3.5,-,0.05,Rain,Heavy Rain,320,2013-01-01 08:33:00
2:44 AM,46.4,46.4,100,30.07,1.8,NW,5.8,-,0.08,Rain,Heavy Rain,320,2013-01-01 08:44:00
2:56 AM,46.9,46.9,100,30.11,1.2,NNW,4.6,-,0.13,Rain,Heavy Rain,330,2013-01-01 08:56:00
3:09 AM,46.4,46.4,100,30.08,1.5,NNW,3.5,-,0.03,Rain,Heavy Rain,330,2013-01-01 09:09:00
3:18 AM,48.2,48.2,100,30.08,1.2,Calm,Calm,-,0.05,Rain,Heavy Rain,0,2013-01-01 09:18:00
3:24 AM,48.2,48.2,100,30.08,0.8,Calm,Calm,-,0.08,Rain,Heavy Rain,0,2013-01-01 09:24:00
3:38 AM,46.4,46.4,100,30.06,1.2,SE,6.9,-,0.12,Rain,Heavy Rain,140,2013-01-01 09:38:00
4:16 AM,48.2,48.2,100,30.06,1.5,North,3.5,-,0.11,Rain,Heavy Rain,10,2013-01-01 10:16:00
4:19 AM,48.2,48.2,100,30.06,1.0,NE,3.5,-,0.14,Rain,Heavy Rain,40,2013-01-01 10:19:00
4:29 AM,48.2,48.2,100,30.06,0.8,Calm,Calm,-,0.21,Rain,Heavy Rain,0,2013-01-01 10:29:00
4:34 AM,48.2,48.2,100,30.06,1.2,East,3.5,-,0.24,Rain,Heavy Rain,80,2013-01-01 10:34:00
4:49 AM,48.2,48.2,100,30.05,1.0,East,3.5,-,0.29,Rain,Heavy Rain,80,2013-01-01 10:49:00
4:56 AM,47.8,47.8,100,30.09,1.5,East,3.5,-,0.33,Rain,Heavy Rain,100,2013-01-01 10:56:00
5:03 AM,48.2,48.2,100,30.05,1.2,Calm,Calm,-,0.03,Rain,Heavy Rain,0,2013-01-01 11:03:00
5:12 AM,48.2,48.2,100,30.05,1.5,East,3.5,-,0.07,Rain,Heavy Rain,80,2013-01-01 11:12:00
5:18 AM,48.2,48.2,100,30.05,2.0,ESE,3.5,-,0.09,Rain,Heavy Rain,120,2013-01-01 11:18:00
5:48 AM,48.2,48.2,100,30.04,3.0,East,5.8,-,0.18,Rain,Rain,100,2013-01-01 11:48:00
6:37 AM,48.2,48.2,100,30.04,1.8,Calm,Calm,-,0.09,Rain,Heavy Rain,0,2013-01-01 12:37:00
6:47 AM,46.4,46.4,100,30.05,2.0,Calm,Calm,-,0.10,Rain,Heavy Rain,0,2013-01-01 12:47:00
6:56 AM,46.9,46.9,100,30.09,3.0,Calm,Calm,-,0.10,Rain,Rain,0,2013-01-01 12:56:00
7:05 AM,46.4,46.4,100,30.05,1.8,Calm,Calm,-,0.01,Rain,Heavy Rain,0,2013-01-01 13:05:00
7:19 AM,46.4,46.4,100,30.06,1.0,Calm,Calm,-,0.03,Rain,Rain,0,2013-01-01 13:19:00
7:22 AM,46.4,46.4,100,30.06,0.5,Calm,Calm,-,0.03,Fog-Rain,Rain,0,2013-01-01 13:22:00
7:32 AM,46.4,46.4,100,30.05,1.0,Calm,Calm,-,0.04,Rain,Rain,0,2013-01-01 13:32:00
7:37 AM,46.4,46.4,100,30.05,1.5,Calm,Calm,-,0.05,Rain,Rain,0,2013-01-01 13:37:00
7:56 AM,46.9,46.9,100,30.09,1.8,Calm,Calm,-,0.07,Rain,Heavy Rain,0,2013-01-01 13:56:00
8:21 AM,48.2,48.2,100,30.04,2.0,ESE,3.5,-,0.02,Rain,Rain,120,2013-01-01 14:21:00
8:33 AM,48.2,48.2,100,30.04,4.0,SE,3.5,-,0.03,Rain,Light Rain,130,2013-01-01 14:33:00
8:56 AM,47.8,47.8,100,30.09,6.0,Variable,3.5,-,0.04,Rain,Light Rain,0,2013-01-01 14:56:00
9:30 AM,48.2,48.2,100,30.07,2.0,Calm,Calm,-,0.04,Rain,Heavy Rain,0,2013-01-01 15:30:00
9:38 AM,48.2,48.2,100,30.08,1.8,Calm,Calm,-,0.06,Rain,Heavy Rain,0,2013-01-01 15:38:00
9:47 AM,48.2,48.2,100,30.08,2.0,NW,3.5,-,0.08,Rain,Rain,320,2013-01-01 15:47:00
10:14 AM,48.2,48.2,100,30.07,2.0,South,4.6,-,0.02,Rain,Rain,170,2013-01-01 16:14:00
10:56 AM,48.9,48.9,100,30.11,1.8,Calm,Calm,-,0.09,Rain,Heavy Rain,0,2013-01-01 16:56:00
11:12 AM,50.0,50.0,100,30.04,3.0,ESE,5.8,-,0.02,Rain,Rain,120,2013-01-01 17:12:00
11:56 AM,50.9,50.9,100,30.06,4.0,South,3.5,-,0.07,Rain,Rain,180,2013-01-01 17:56:00
12:28 PM,51.8,51.8,100,30.02,2.5,SW,3.5,-,0.04,Rain,Rain,230,2013-01-01 18:28:00
12:56 PM,50.9,50.9,100,30.02,2.5,Calm,Calm,-,0.07,Rain,Rain,0,2013-01-01 18:56:00
1:25 PM,51.8,51.8,100,30.01,4.0,NW,3.5,-,0.03,Rain,Rain,320,2013-01-01 19:25:00
2:03 PM,51.8,51.8,100,30.01,1.0,NW,4.6,-,0.01,Rain,Heavy Rain,320,2013-01-01 20:03:00
2:10 PM,51.8,51.8,100,30.01,1.5,NNW,4.6,-,0.02,Rain,Rain,330,2013-01-01 20:10:00
2:30 PM,51.8,51.8,100,30.00,2.0,NNW,10.4,-,0.03,Rain,Rain,340,2013-01-01 20:30:00
2:36 PM,48.2,48.2,100,30.01,1.8,North,12.7,-,0.03,Rain,Rain,350,2013-01-01 20:36:00
2:44 PM,46.4,46.4,100,30.01,2.5,North,13.8,18.4,0.03,Rain,Light Rain,350,2013-01-01 20:44:00
3:09 PM,46.4,46.4,100,30.02,2.5,North,8.1,-,0.01,Rain,Light Rain,350,2013-01-01 21:09:00
3:18 PM,46.4,46.4,100,30.01,3.0,North,6.9,-,0.01,Rain,Light Rain,350,2013-01-01 21:18:00
3:29 PM,46.4,46.4,100,30.02,2.0,North,8.1,-,0.01,Rain,Light Rain,360,2013-01-01 21:29:00
3:36 PM,46.4,46.4,100,30.02,1.2,North,6.9,-,0.01,Rain,Rain,10,2013-01-01 21:36:00
3:56 PM,45.0,45.0,100,30.07,1.5,North,9.2,-,0.01,Rain,Light Rain,350,2013-01-01 21:56:00
4:05 PM,44.6,44.6,100,30.03,1.2,North,6.9,-,0.00,Rain,Light Rain,350,2013-01-01 22:05:00
4:09 PM,44.6,44.6,100,30.03,1.2,North,8.1,-,0.00,Rain,Light Rain,350,2013-01-01 22:09:00
4:11 PM,44.6,44.6,100,30.03,1.5,North,6.9,-,0.00,Rain,Light Rain,360,2013-01-01 22:11:00
4:17 PM,44.6,44.6,100,30.03,1.2,NNW,8.1,-,0.00,Rain,Rain,340,2013-01-01 22:17:00
4:23 PM,44.6,44.6,100,30.03,0.8,North,6.9,-,0.01,Rain,Heavy Rain,350,2013-01-01 22:23:00
4:40 PM,44.6,44.6,100,30.05,1.2,NNW,5.8,-,0.04,Rain,Heavy Rain,340,2013-01-01 22:40:00
4:56 PM,45.0,45.0,100,30.09,2.5,North,5.8,-,0.07,Rain,Heavy Rain,350,2013-01-01 22:56:00
5:07 PM,44.6,44.6,100,30.05,3.0,North,6.9,-,0.01,Rain,Heavy Rain,360,2013-01-01 23:07:00
5:46 PM,44.6,44.6,100,30.05,5.0,North,6.9,-,0.05,Rain,Rain,360,2013-01-01 23:46:00
5:56 PM,43.9,43.9,100,30.09,6.0,North,8.1,-,0.06,Rain,Rain,360,2013-01-01 23:56:00
6:46 PM,44.6,44.6,100,30.05,4.0,North,5.8,-,0.01,Rain,Rain,10,2013-01-02 00:46:00
6:56 PM,43.9,43.9,100,30.09,5.0,Calm,Calm,-,0.01,Rain,Light Rain,0,2013-01-02 00:56:00
7:56 PM,43.0,43.0,100,30.12,9.0,NNW,9.2,-,0.01,,Overcast,330,2013-01-02 01:56:00
8:08 PM,42.8,42.8,100,30.08,2.0,NNW,11.5,-,N/A,,Overcast,330,2013-01-02 02:08:00
8:12 PM,42.8,42.8,100,30.08,1.2,NNW,10.4,-,N/A,,Overcast,340,2013-01-02 02:12:00
8:21 PM,42.8,42.8,100,30.07,2.0,NNW,11.5,-,N/A,,Overcast,340,2013-01-02 02:21:00
8:32 PM,42.8,42.8,100,30.08,1.2,North,12.7,-,N/A,,Overcast,360,2013-01-02 02:32:00
8:37 PM,42.8,42.8,100,30.08,0.8,North,13.8,-,N/A,,Overcast,350,2013-01-02 02:37:00
8:46 PM,41.0,41.0,100,30.08,0.5,North,12.7,18.4,N/A,Fog,Fog,360,2013-01-02 02:46:00
8:56 PM,39.9,39.9,100,30.12,0.5,NNW,13.8,-,N/A,Fog,Fog,340,2013-01-02 02:56:00
9:15 PM,39.2,39.2,100,30.10,0.8,North,12.7,-,N/A,,Overcast,350,2013-01-02 03:15:00
9:28 PM,39.2,39.2,100,30.09,0.5,North,10.4,17.3,N/A,Fog,Fog,360,2013-01-02 03:28:00
9:37 PM,39.2,39.2,100,30.10,0.8,North,6.9,-,N/A,,Overcast,10,2013-01-02 03:37:00
9:46 PM,39.2,39.2,100,30.10,1.0,North,9.2,-,N/A,,Overcast,10,2013-01-02 03:46:00
9:56 PM,37.9,37.9,100,30.14,0.8,North,13.8,18.4,N/A,,Overcast,360,2013-01-02 03:56:00
10:08 PM,37.4,37.4,100,30.12,1.2,NNW,10.4,-,N/A,,Overcast,340,2013-01-02 04:08:00
10:21 PM,37.4,37.4,100,30.11,1.8,North,9.2,-,N/A,,Overcast,360,2013-01-02 04:21:00
10:43 PM,37.4,37.4,100,30.14,3.0,North,8.1,-,N/A,,Overcast,350,2013-01-02 04:43:00
10:56 PM,37.9,37.9,100,30.17,4.0,North,8.1,-,N/A,,Overcast,360,2013-01-02 04:56:00
11:29 PM,37.4,37.4,100,30.12,2.5,NNE,5.8,-,N/A,,Overcast,20,2013-01-02 05:29:00
11:40 PM,37.4,37.4,100,30.12,5.0,NNE,8.1,-,N/A,,Overcast,20,2013-01-02 05:40:00
11:47 PM,37.4,37.4,100,30.12,6.0,North,6.9,-,N/A,,Overcast,10,2013-01-02 05:47:00
11:56 PM,36.9,36.9,100,30.16,5.0,North,9.2,-,N/A,,Overcast,360,2013-01-02 05:56:00